Wind_Speed
24 28 36 35 34 28 26 24 26 16 16 21 20 18 15 29 24 21 22 23 23 25 24 26 23 24 23 22 19 17 17 17 16 13 13 15 12 13 14 16 16 11 14 12
25 37 32 30 33 31 31 31 31 22 22 25 21 23 11 27 24 22 23 23 25 25 26 27 28 26 26 23 20 18 17 16 17 16 15 14 17 18 16 13 14 17 15 10
32 29 28 31 35 36 34 34 30 21 21 23 23 23 25 24 22 22 23 24 24 27 28 30 30 30 29 27 23 19 17 17 16 18 16 18 16 13 13 16 12 9 8 9
31 28 28 35 38 37 38 33 31 26 26 22 25 21 30 26 28 26 24 25 26 26 28 29 32 32 32 30 26 23 20 19 17 19 18 17 17 15 14 13 8 3 2 2
32 30 33 35 40 38 40 31 32 29 31 22 28 17 28 32 35 30 25 26 26 28 27 30 32 33 26 30 29 26 22 21 19 18 18 16 15 13 11 9 5 5 6 4
30 28 33 33 31 36 34 33 32 32 34 23 32 25 40 41 32 27 30 27 28 26 29 28 31 32 31 26 26 24 22 22 21 19 19 18 15 13 12 10 10 9 7 7
33 35 33 32 34 32 37 38 28 24 24 18 35 38 26 27 29 25 34 28 31 30 30 31 31 34 31 26 23 23 20 21 22 21 21 20 16 15 12 9 10 10 10 11
36 31 37 34 40 36 41 41 31 20 17 22 38 35 29 32 28 27 32 31 37 32 29 31 33 30 26 25 22 22 17 18 23 24 23 21 19 16 12 12 11 13 12 11
36 36 26 40 32 36 39 45 43 41 36 28 34 37 34 25 33 21 26 22 24 35 26 29 34 29 27 25 22 16 16 16 24 26 24 22 19 13 12 14 15 14 15 16
37 29 31 30 36 36 43 39 41 45 26 25 31 35 25 35 40 28 24 20 20 24 27 28 30 27 26 27 22 20 20 16 24 26 26 23 20 14 15 17 17 18 19 22
41 38 28 32 42 45 39 43 43 40 43 17 17 27 33 33 34 37 32 30 32 25 22 27 25 26 26 29 26 24 24 22 25 28 28 26 25 22 19 19 20 21 24 21
42 38 40 36 36 38 41 43 47 38 33 41 38 30 28 28 29 31 28 28 30 28 28 28 29 28 30 27 28 24 28 27 25 28 30 27 26 27 25 24 24 23 24 26
40 44 34 36 37 37 48 45 39 46 44 33 28 32 47 16 29 16 21 23 28 25 28 22 32 31 30 29 27 28 25 29 28 28 30 29 29 30 29 25 28 27 27 31
41 44 49 32 38 34 39 45 42 41 42 41 40 36 47 26 17 17 23 26 21 14 22 24 23 32 26 33 22 23 26 26 31 29 26 29 30 29 26 27 27 30 30 29
33 34 40 46 42 37 36 42 40 41 46 40 45 39 43 46 30 31 24 19 26 23 21 23 29 23 30 28 28 28 30 30 29 30 28 28 27 27 26 28 28 28 30 28
37 33 30 42 39 40 38 38 38 42 43 47 42 42 43 37 38 35 31 34 28 33 27 18 22 21 24 28 35 31 32 32 30 29 28 29 30 28 26 26 29 29 29 28
39 38 32 32 37 35 40 41 37 36 37 36 38 45 36 36 40 31 33 32 32 36 35 26 19 20 24 22 29 34 31 34 34 32 29 30 29 27 28 28 30 32 28 23
36 42 34 32 30 24 37 36 34 31 30 36 36 32 37 42 41 40 37 27 26 26 31 34 34 23 26 30 28 27 34 37 36 34 33 33 29 29 30 29 30 27 21 17
34 36 35 30 31 29 30 29 27 30 38 32 27 26 29 31 33 42 50 44 38 39 27 41 38 33 29 33 35 31 28 36 36 35 35 35 33 36 33 29 26 22 24 19
38 34 41 35 28 26 34 31 23 20 17 11 15 16 18 17 19 20 38 43 45 44 41 33 32 33 40 42 41 32 27 36 37 38 36 38 41 39 30 27 26 25 23 17
22 30 32 31 28 31 19 27 18 17 21 19 22 20 22 24 28 29 20 19 39 38 43 44 41 41 39 41 44 42 30 34 39 38 38 40 41 32 30 30 25 18 18 17
22 19 27 28 28 17 24 25 22 18 18 22 20 16 21 23 27 33 35 26 28 36 36 39 41 37 30 31 37 35 31 33 42 41 41 42 36 33 32 27 25 23 28 20
26 28 26 21 26 15 21 19 20 25 23 22 20 21 26 25 18 18 28 28 24 31 31 27 32 38 40 37 40 36 34 36 40 44 42 37 35 37 33 29 25 28 23 24
23 24 37 31 19 15 20 24 24 19 12 8 5 7 7 9 13 18 20 27 24 27 35 29 29 31 40 40 40 42 43 39 37 41 42 39 38 34 28 24 18 20 21 21
19 21 31 39 30 21 17 18 15 17 15 14 15 15 14 17 17 16 20 23 25 23 28 28 30 31 34 39 41 44 42 38 40 37 36 34 27 21 18 18 19 18 19 22
21 21 20 25 30 24 28 21 19 21 14 7 15 16 19 17 18 18 21 22 19 27 30 29 31 31 23 30 32 32 32 32 32 28 23 19 17 17 17 19 17 20 21 22
Wind_Direction
210 208 216 214 216 222 230 230 230 218 196 209 201 194 182 189 200 201 203 204 207 206 209 207 218 221 224 230 232 235 240 244 256 256 248 250 253 257 252 267 271 257 274 280
211 219 218 217 216 222 232 243 237 215 223 211 209 200 177 183 194 201 206 208 209 211 212 217 223 218 231 236 241 242 245 252 253 254 255 249 249 252 252 243 273 268 273 274
215 223 216 215 215 219 228 237 239 241 209 205 213 211 208 201 199 200 207 214 214 215 214 225 227 230 230 241 246 242 240 249 249 255 247 248 249 247 238 260 246 269 269 274
226 218 218 215 218 215 225 228 240 245 242 191 224 225 207 211 202 202 199 208 216 220 220 219 234 235 233 239 243 243 242 245 246 247 251 245 246 241 234 247 242 160 187 195
225 220 218 218 217 215 224 224 236 245 241 200 195 245 258 209 201 203 204 209 210 219 220 219 229 239 243 234 243 245 241 238 241 238 247 242 228 219 215 207 188 153 146 145
230 225 221 222 221 221 223 229 238 241 248 221 230 210 247 201 212 236 212 213 211 209 220 225 221 238 248 249 248 248 240 231 236 232 231 228 218 213 199 194 175 178 178 184
224 226 223 220 221 219 221 222 232 237 237 242 222 204 216 218 215 219 214 233 214 210 208 222 221 224 243 250 250 253 247 226 226 226 217 217 210 211 204 193 184 191 193 193
221 223 220 215 219 216 217 221 223 228 229 235 238 247 223 223 216 226 249 199 208 208 203 217 230 227 236 243 249 253 261 234 221 216 209 209 207 205 202 197 200 201 215 225
222 230 225 220 219 216 218 223 224 234 238 247 238 230 238 214 239 199 208 236 211 210 210 221 226 233 234 245 244 240 246 236 217 212 207 205 202 193 190 205 214 220 226 243
227 246 225 220 219 223 219 219 221 231 239 241 240 251 229 216 207 222 201 205 217 213 211 213 218 226 239 242 247 232 231 227 218 214 209 209 208 205 208 214 221 230 234 250
224 234 237 216 211 218 214 225 229 227 237 246 245 245 238 224 210 202 214 223 228 223 220 218 226 235 246 247 247 236 223 222 213 215 212 214 215 218 225 229 233 234 243 251
221 226 238 234 225 222 221 219 226 236 227 236 251 248 242 243 237 205 210 222 218 218 223 225 219 234 241 248 244 241 227 223 217 217 217 222 226 227 232 241 244 248 255 264
216 219 231 237 236 220 216 223 224 230 238 244 236 247 245 258 224 242 222 214 214 217 221 224 218 222 235 245 250 241 237 223 220 221 226 229 231 231 233 239 251 258 261 264
216 220 220 232 228 222 220 221 223 226 230 238 243 237 246 239 202 208 210 233 207 191 205 209 205 215 239 238 260 255 242 230 221 222 228 228 229 233 237 243 247 256 266 269
214 226 224 225 234 226 230 221 222 225 236 238 238 239 233 247 243 225 221 213 218 216 225 216 220 226 228 237 257 266 252 241 226 228 230 229 231 234 241 246 253 255 264 273
212 229 232 230 225 234 234 226 225 227 229 240 246 245 241 239 247 248 225 231 230 221 218 227 234 239 222 232 248 264 252 238 232 228 225 230 234 242 247 249 252 258 265 270
209 219 226 235 224 229 237 233 230 227 225 231 240 244 250 247 245 251 246 235 224 221 223 224 232 248 257 263 253 256 243 235 233 231 227 229 235 241 243 248 253 259 262 263
205 213 221 234 226 236 234 227 231 239 233 229 231 238 247 252 251 250 246 246 241 239 231 222 229 248 262 262 267 258 241 233 233 235 231 233 234 241 243 249 255 253 249 234
214 203 221 228 225 234 233 227 224 229 243 244 247 243 239 243 249 256 248 249 251 226 248 234 233 232 259 263 260 257 245 224 229 237 235 235 238 242 244 249 244 231 223 245
214 211 215 220 227 226 223 223 223 220 238 226 224 224 229 234 246 244 248 256 253 253 248 251 251 250 246 254 252 250 249 227 227 233 232 235 237 241 244 233 222 219 233 253
212 206 211 218 225 231 244 206 195 209 212 226 230 236 246 250 243 244 244 243 251 251 251 247 247 246 251 239 242 247 252 235 227 231 231 233 237 235 225 216 217 232 249 267
212 211 216 220 213 225 224 193 190 226 226 236 244 249 251 256 257 252 247 251 244 239 244 241 239 230 231 232 242 254 249 236 224 227 225 228 227 216 207 216 234 258 266 282
240 227 232 228 228 242 211 178 186 215 223 220 231 253 260 258 282 271 242 238 239 239 227 220 228 229 235 235 248 256 244 233 227 224 222 218 208 206 217 230 267 275 277 289
235 241 235 240 240 206 205 220 207 220 219 172 189 224 248 284 230 228 231 234 232 237 236 235 235 238 246 243 240 245 235 229 221 217 216 210 207 217 225 243 260 273 278 277
259 246 219 224 222 195 170 154 152 188 208 214 227 249 249 210 188 193 195 202 214 218 234 239 247 251 240 237 236 230 222 218 212 197 195 200 211 229 248 262 265 272 268 262
268 255 226 202 182 201 188 151 156 205 207 188 232 232 214 212 212 198 183 183 190 217 227 238 252 250 223 212 217 213 202 187 184 195 203 216 232 239 249 259 264 261 257 262
Height
3124 3128 3123 3129 3135 3139 3138 3138 3137 3137 3144 3149 3148 3150 3151 3157 3164 3167 3168 3170 3172 3174 3175 3178 3179 3180 3182 3184 3187 3190 3192 3194 3194 3196 3198 3199 3201 3203 3204 3205 3204 3206 3207 3207
3122 3115 3122 3129 3133 3136 3136 3133 3132 3133 3136 3143 3146 3145 3144 3152 3157 3161 3164 3166 3169 3171 3173 3174 3175 3177 3178 3181 3184 3187 3190 3192 3193 3194 3196 3198 3199 3200 3201 3203 3204 3204 3204 3205
3111 3114 3121 3124 3127 3130 3131 3130 3130 3131 3134 3137 3141 3144 3146 3148 3152 3155 3159 3161 3164 3167 3168 3169 3171 3172 3174 3176 3180 3183 3186 3188 3190 3191 3193 3194 3196 3198 3199 3200 3201 3202 3202 3203
3107 3112 3114 3117 3119 3124 3124 3127 3128 3131 3129 3130 3137 3134 3137 3145 3145 3149 3150 3157 3159 3161 3164 3167 3166 3167 3169 3171 3175 3178 3182 3184 3187 3188 3189 3192 3194 3196 3198 3199 3199 3200 3201 3202
3099 3104 3106 3108 3111 3117 3119 3124 3125 3126 3126 3125 3132 3135 3133 3136 3140 3141 3146 3150 3154 3157 3159 3163 3163 3164 3165 3167 3168 3172 3177 3180 3182 3185 3187 3189 3191 3194 3196 3197 3198 3199 3201 3202
3097 3099 3100 3103 3109 3113 3119 3121 3121 3121 3121 3119 3125 3129 3125 3126 3128 3139 3139 3145 3147 3152 3154 3157 3161 3161 3161 3164 3164 3166 3170 3175 3178 3181 3184 3187 3190 3192 3193 3195 3197 3199 3200 3202
3089 3089 3093 3098 3102 3107 3112 3115 3114 3113 3109 3107 3115 3117 3116 3121 3124 3128 3135 3139 3143 3145 3148 3151 3153 3156 3156 3158 3160 3161 3165 3170 3174 3177 3181 3185 3188 3190 3192 3194 3196 3197 3198 3199
3082 3080 3086 3089 3091 3097 3102 3105 3103 3105 3102 3105 3107 3102 3105 3114 3119 3123 3129 3125 3133 3138 3142 3146 3148 3150 3151 3154 3157 3159 3161 3166 3170 3174 3178 3182 3185 3187 3189 3191 3193 3194 3195 3196
3074 3074 3079 3082 3087 3093 3093 3095 3101 3102 3101 3098 3095 3098 3102 3107 3114 3113 3121 3127 3131 3131 3134 3138 3142 3145 3148 3149 3152 3156 3158 3162 3166 3170 3175 3179 3182 3184 3186 3188 3190 3191 3192 3192
3068 3070 3070 3076 3084 3081 3082 3091 3095 3094 3092 3088 3089 3091 3095 3098 3098 3117 3116 3122 3128 3129 3128 3132 3137 3140 3143 3145 3148 3152 3155 3158 3162 3167 3171 3175 3179 3181 3183 3185 3186 3187 3189 3189
3063 3065 3065 3067 3063 3072 3079 3080 3082 3088 3088 3081 3085 3083 3091 3094 3097 3104 3108 3112 3123 3126 3126 3127 3131 3135 3138 3141 3143 3147 3150 3153 3157 3161 3166 3170 3174 3177 3179 3180 3182 3184 3185 3187
3052 3059 3057 3054 3060 3066 3070 3070 3075 3076 3077 3078 3081 3077 3086 3090 3094 3097 3103 3108 3113 3116 3121 3124 3125 3129 3132 3135 3138 3140 3144 3148 3152 3156 3160 3165 3168 3172 3174 3175 3178 3180 3182 3182
3044 3045 3052 3053 3052 3053 3056 3063 3067 3072 3076 3070 3075 3074 3078 3086 3095 3094 3100 3102 3106 3109 3115 3119 3121 3122 3127 3130 3132 3134 3138 3142 3147 3151 3155 3159 3162 3165 3168 3171 3172 3174 3176 3177
3034 3036 3035 3034 3039 3049 3051 3054 3059 3063 3065 3065 3067 3075 3074 3083 3084 3094 3094 3099 3102 3103 3111 3114 3117 3118 3121 3124 3126 3128 3131 3136 3140 3145 3148 3152 3156 3159 3163 3166 3168 3169 3170 3172
3023 3023 3027 3032 3037 3041 3042 3046 3052 3055 3055 3060 3062 3067 3073 3073 3083 3087 3091 3094 3096 3100 3104 3107 3112 3116 3116 3117 3121 3122 3125 3129 3134 3138 3142 3145 3150 3154 3157 3159 3161 3164 3164 3165
3016 3018 3023 3024 3029 3032 3034 3038 3040 3043 3048 3051 3057 3059 3067 3072 3074 3079 3082 3088 3091 3095 3097 3101 3106 3110 3114 3114 3115 3116 3119 3122 3127 3131 3135 3140 3144 3147 3150 3153 3155 3156 3158 3158
3007 3013 3019 3017 3022 3027 3027 3025 3032 3037 3043 3047 3051 3051 3060 3063 3066 3072 3077 3080 3085 3085 3089 3094 3098 3102 3106 3108 3108 3109 3112 3116 3119 3124 3128 3133 3137 3140 3143 3146 3148 3149 3151 3152
2998 3005 3014 3016 3020 3017 3012 3025 3030 3031 3035 3039 3043 3048 3052 3054 3057 3061 3066 3071 3075 3077 3082 3087 3091 3095 3098 3100 3101 3102 3105 3109 3113 3117 3121 3125 3130 3133 3136 3139 3141 3143 3144 3145
2990 2998 3007 3009 3011 3012 3015 3019 3023 3028 3029 3033 3037 3042 3046 3050 3053 3052 3058 3061 3066 3074 3076 3080 3083 3087 3091 3092 3094 3096 3097 3102 3106 3110 3114 3118 3122 3124 3128 3132 3135 3136 3136 3138
2986 2993 3001 3005 3003 3001 3009 3017 3020 3021 3025 3030 3029 3032 3035 3038 3042 3046 3052 3052 3057 3062 3067 3071 3073 3077 3083 3084 3085 3088 3090 3093 3097 3103 3107 3110 3113 3117 3123 3126 3127 3129 3131 3133
2979 2984 2990 2996 2999 3003 3007 3008 3013 3020 3024 3021 3025 3028 3031 3034 3037 3038 3042 3044 3049 3052 3056 3060 3065 3068 3071 3073 3076 3079 3083 3085 3091 3096 3101 3104 3108 3112 3115 3118 3121 3124 3126 3126
2980 2984 2988 2994 2999 3002 3002 3006 3010 3015 3013 3017 3021 3024 3026 3028 3029 3032 3037 3040 3040 3043 3047 3050 3054 3059 3063 3065 3068 3069 3074 3077 3082 3087 3092 3096 3101 3105 3109 3113 3116 3118 3119 3117
2982 2984 2988 2992 2994 2993 3004 2997 3000 3008 3012 3017 3018 3020 3021 3023 3025 3027 3026 3028 3031 3034 3038 3041 3045 3050 3055 3056 3061 3064 3066 3068 3074 3078 3084 3089 3094 3097 3102 3106 3108 3110 3110 3110
2982 2986 2986 2991 2992 2990 2991 2994 3001 3006 3009 3011 3012 3014 3018 3019 3020 3020 3019 3022 3025 3027 3030 3034 3036 3040 3046 3050 3054 3057 3059 3062 3068 3072 3075 3080 3086 3093 3097 3099 3099 3100 3101 3101
2978 2978 2981 2986 2990 2989 2991 2994 2999 3001 3000 3003 3005 3008 3011 3013 3013 3014 3015 3016 3018 3020 3022 3028 3031 3034 3038 3041 3044 3048 3052 3056 3059 3069 3073 3079 3084 3088 3090 3091 3092 3092 3092 3093
2975 2975 2974 2978 2978 2983 2985 2989 2992 2993 2996 2996 3000 3004 3008 3009 3011 3010 3011 3012 3014 3014 3017 3022 3025 3027 3031 3037 3041 3045 3048 3055 3061 3069 3072 3076 3079 3081 3082 3084 3084 3086 3085 3086